Location: Ceske Budejovice
(48.9830°N, 14.4670°E)
Time: 00:29:51
(UTC+01:00)

ISS - Visible Passes

Search period start: 26 January 2021 00:00
Search period end: 05 February 2021 00:00
Orbit: 418 x 421 km, 51.6° (Epoch: 26 January)

Date Brightness Start Highest point End Pass type
(mag) Time Alt. Az. Time Alt. Az. Time Alt. Az.
26 Jan -3.4 18:48:13 10° W 18:51:33 52° N 18:51:36 52° N visible
27 Jan -3.4 18:00:47 10° W 18:04:08 56° N 18:06:12 21° ENE visible
27 Jan -1.2 19:37:51 10° WNW 19:39:10 21° WNW 19:39:10 21° WNW visible
28 Jan -3.5 18:50:27 10° WNW 18:53:46 55° N 18:53:46 55° N visible
29 Jan -3.4 18:03:02 10° WNW 18:06:21 52° N 18:08:23 21° ENE visible
29 Jan -1.3 19:39:57 10° WNW 19:41:21 23° WNW 19:41:21 23° WNW visible
30 Jan -3.9 18:52:34 10° WNW 18:55:57 77° NNE 18:56:00 77° NNE visible
31 Jan -3.7 18:05:09 10° WNW 18:08:32 63° NNE 18:10:42 20° E visible
31 Jan -1.4 19:42:04 10° WNW 19:43:41 24° W 19:43:41 24° W visible
01 Feb -3.4 18:54:37 10° WNW 18:57:56 59° SSW 18:58:27 51° SSE visible
02 Feb -3.7 18:07:10 10° WNW 18:10:33 82° SSW 18:13:19 15° ESE visible
02 Feb -1.1 19:44:31 10° W 19:46:19 18° WSW 19:46:19 18° WSW visible
03 Feb -1.9 18:56:47 10° W 18:59:44 28° SW 19:01:19 19° S visible
04 Feb -2.5 18:09:12 10° WNW 18:12:25 41° SSW 18:15:36 10° SE visible
